Погода Усть-Уса

Погода Усть-Уса : погода сейчас, прогноз погоды и архив. Всё, что Вы хотите узнать о погоде Усть-Уса!

Хотите узнать прогноз погоды Усть-Уса? Тогда Вам сюда: Погода Усть-Уса

Поиск расширенной информации на нашем сайте:

Полезная информация: Брошюровочные машины выбрать и купить, продажа. Брошюровочная машина в каталоге.

Другие новости

Новости СМИ2

Главная страница сайта

Новости сайта

03.07.2017

Напоминаем, что на нашем специализированном сайте Метеоцентр.Азия вы можете получить высокодетализированные автоматические прогнозы погоды по пунктам России, СНГ и мира в авиационном формате (включающие направление и скорость ветра, видимость, явления погоды, количество и форму облачности, нижнюю и верхнюю границу облачности).

Рекомендуем: Актуальная информация дорнит ростов тут.

Погода Усть-Уса - сегодня

Время (UTC), дата Ветер
(°,м/с) 
Видим.   Явления Облачность Т
(°С)
Тd
(°С)
f(%) Тe
(°С)
Pmin
(гПа)
dP
(гПа)
Po
(мм)
O2
(г/м3)
Тmin Tmax R s Состояние
почвы
09 22.11.17 020 (С) 20000 м    8/6 210 м средняя 
[Frnb|Ac trans]
-14.5 -16.6 84 -18  1018.5  0.7  756  323           
12 22.11.17 020 (С) 20000 м    9/8 300 м средняя 
[Frnb|Ac trans]
-15.7 -17.3 87 -19  1018.9  0.4  756  325           
15 22.11.17 010 (С) 20000 м  слаб. снег  10/5 180 м средняя 
[Frnb|Ac As]
-15.2 -16.9 87 -19  1018.4  -0.5  756  324    -9.7  0.2     
18 22.11.17 010 (С) 2000 м  снег  10/6 240 м средняя 
[Frnb|Ac As]
-13.9 -15.6 87 -17  1018  -0.4  756  322           
21 22.11.17 360 (С) 2000 м  снег  10/5 210 м средняя 
[Frnb|Ac As]
-12 -13.6 88 -14  1017  -0.9  755  319           
00 23.11.17 020 (С) 2000 м  снег  10/5 240 м средняя 
[Frnb|As op]
-10.1 -11.6 89 -14  1015.6  -1.3  754  317           
03 23.11.17 040 (СВ) 2000 м  снег  10/6 240 м средняя 
[Frnb|As op]
-9 -10.4 90 -12  1014.3  -1.2  753  315  -15.3    38  равномерный
сухой снег
100% 
06 23.11.17 040 (СВ) 20000 м  {снег}  10/8 660 м средняя 
[Sc|Ac und]
-8.4 -9.7 90 -10  1013.9  -0.4  753  314           
09 23.11.17 070 (В) 20000 м    10/8 960 м средняя 
[Sc|Ac und]
-7.9 -9.2 90 -11  1013.3  -0.6  752  313           
12 23.11.17 070 (В) 10 км  слаб. снег  10/10 300 м 
[Frnb|Ns]
-7.9 -9.1 91 -11  1012.2  -1.1  752  313           
15 23.11.17 070 (В) 4000 м  слаб. снег  10/10 240 м 
[Frnb|Ns]
-7.7 -8.9 91 -10  1010.3  -1.9  750  312    -7.7     
18 23.11.17 070 (В) 2000 м  снег  10/10 210 м 
[Frnb|Ns]
-7.5 -8.6 92 -7  1008.4  -1.8  749  311           
21 23.11.17 310 (СЗ) 4000 м  слаб. снег  10/10 180 м 
[Frnb|Ns]
-7.4 -8.5 92 -7  1006.3  -2.1  747  310           
00 24.11.17 280 (З) 6{10}  4000 м  слаб. снег  10/10 240 м 
[Frnb|Ns]
-11.9 -13.6 87 -18  1006.5  747  316           
03 24.11.17 260 (З) 6{10}  н/о    н/о 
-12.9 -14.6 87 -19  1007.8  1.3  748  318  -13         
06 24.11.17 280 (З) 8-11{12}  4000 м  слаб. снег  10/10 240 м 
[Frnb|Ns]
-10 -11.4 89 -16  1009.9  2.1  750  315           
09 24.11.17 280 (З) 8-13{13}  10 км  слаб. снег  8/5 240 м средняя 
[Frnb|Ac As]
-8.9 -10.6 87 -15  1013.4  3.5  753  314           
12 24.11.17 290 (З) 7-11{14}  20000 м  позёмок{снег}  3/3 1000 м 
[Sc]
-9.1 -11.2 85 -15  1016.7  3.2  755  316           
15 24.11.17 300 (СЗ) 5{13}  20000 м    10/10 400 м кучево-дожд. 
[Cb calv]
-8.2 -10.2 85 -13  1019.7  2.9  757  316    -8.1     
18 24.11.17 300 (СЗ) 4{11}  20000 м    10/10 330 м 
[Frnb]
-9.6 -11.3 87 -14  1022.4  2.7  759  318           
21 24.11.17 300 (СЗ) 20000 м  слаб. снег  10/8 270 м средняя 
[Frnb|Ac As]
-10.5 -11.9 89 -14  1024.6  2.1  761  320           
00 25.11.17 290 (З) 20000 м  слаб. снег  10/10 240 м 
[Frnb|Ns]
-11.8 -13.2 89 -15  1026.3  1.6  762  322           
03 25.11.17 010 (С) 20000 м  слаб. снег  10/10 210 м 
[Frnb|Ns]
-13.4 -15 88 -13  1027.8  1.4  763  325  -13.4    0.2  41  равномерный
сухой снег
100% 
06 25.11.17 170 (Ю) 20000 м  {снег}  10/6 240 м средняя 
[Frnb|Ac und]
-14.1 -15.8 87 -14  1028.6  0.8  764  326  -14.9         
09 25.11.17 140 (ЮВ) 10 км  слаб. снег  10/6 330 м средняя 
[Frnb|Ac As]
-12.7 -14.3 88 -15  1029.1  0.5  764  324           
Время (UTC), дата Ветер
(°,м/с) 
Видим.   Явления Облачность Т
(°С)
Тd
(°С)
f(%) Тe
(°С)
Pmin
(гПа)
dP
(гПа)
Po
(мм)
O2
(г/м3)
Тmin Tmax R s Состояние
почвы

Для получения пояснительной информации подведите курсор к названию столбца.

ПОГОДА Усть-Уса - архив

Всё, что Вы хотите узнать о погоде Усть-Уса - удобно и подробно!

Выберите нужную дату (начиная с 1 января 2015* года) и нажмите кнопку "Найти".
Будут отображены архивные сводки погоды по пункту Усть-Уса, начиная с указанной даты.


Отображать данные в формате CSV (для использования в таблицах Excel)


Внимание! Наш архив погоды предназначен исключительно для личного некоммерческого использования в познавательных целях. Если Вам необходимы официальные справки о состоянии погоды (для производственных, юридических, коммерческих и т.п. целей), обращайтесь в органы Росгидромета.

*Примечание: данная дата относится к архиву по метеостанциям СССР (Россия, СНГ, Балтия).
Архив по метеостанциям Зарубежной Европы и Азии (кроме Китая) хранится 10 дней, по другим регионам земного шара (Китай, Африка, Америка, Австралия, Океания) - 1 день.

Усть-Уса - район местоположения метеостанции


Название, широта, долгота, высота метеостанции:
Усть-Уса 66°ш. 56.9°д. 78 м над ур. моря [Российская Федерация]

Дополнительная информация

В oтличие oт бoльшинства пoгoдных сайтoв мы публикуем пoдрoбную метеoинфoрмацию в детальнoм прoфессиoнальнoм фoрмате.

Характеристики температуры и влажнoсти вoздуха измеряются на высoте 2 м в тени вдали oт зданий и деревьев.
Скoрoсть ветра измеряется на высoте 10 м (на урoвне рoста челoвека скoрoсть ветра ниже в 1.5-2 раза). Если метеoстанция нахoдится в гoрoде или в лесу, тo скoрoсть ветра занижена на 2-4 м/с пo сравнению с oткрытым местoм. Скoрoсть ветра над акватoриями крупных рек и oзёр, а также на вершинах хoлмoв на 2-5 м/с выше, чем в oбычных услoвиях.
Атмoсфернoе давление в разных тoчках местнoсти мoжет значительнo oтличаться oт давления на метеoстанции, в зависимoсти oт услoвий рельефа (при пoдъёме на 10 м давление пoнижается примернo на 1 мм рт.ст.).